Hutchinson, KS

2:13 PM CDT on July 25, 2016 (GMT -0500)
Hutchinson Municipal

Weather History for KHUT - February, 2013

Change the Weather History Date:

Wednesday, February 6, 2013

  Actual Average Record
Temperature  
Mean Temperature 45 °F -  
Max Temperature 57 °F 41 °F 72 °F (2009)
Min Temperature 33 °F 20 °F 3 °F (2014)
Degree Days  
Heating Degree Days 20    
Moisture  
Dew Point 44 °F    
Average Humidity 81    
Maximum Humidity 100    
Minimum Humidity 55    
Precipitation  
Precipitation 0.00 in - - ()
Sea Level Pressure  
Sea Level Pressure 29.91 in    
Wind  
Wind Speed 11 mph (SSE)    
Max Wind Speed 22 mph    
Max Gust Speed 30 mph    
Visibility 6 miles    
Events Fog , Rain    
Averages and records for this station are not official NWS values.
T = Trace of Precipitation, MM = Missing Value Source: NWS Daily Summary

Daily Weather History Graph

Daily Weather History Graph

Search for Another Location

Airport or City:

Trip Planner

Search our weather history database for the weather conditions in past years. The results will help you decide how hot, cold, wet, or windy it might be!

Date:

Astronomy

Feb. 06, 2013 Rise Set
Actual Time 7:31 AM CST 6:00 PM CST
Civil Twilight 7:03 AM CST 6:27 PM CST
Nautical Twilight 6:32 AM CST 6:59 PM CST
Astronomical Twilight 6:01 AM CST 7:30 PM CST
Moon 4:14 AM CST (2/6) 2:22 PM CST (2/6)
Length of Visible Light 11h 24m
Length of Day
10h 29m
Waning Crescent, 17% of the Moon is Illuminated
Feb 6
Waning Crescent
Feb 10
New
Feb 17
First Quarter
Feb 25
Full
Mar 4
Last Quarter

Hourly Weather History & Observations

Time (CST) Temp. Windchill Dew Point Humidity Pressure Visibility Wind Dir Wind Speed Gust Speed Precip Events Conditions
12:52 AM 42.1 °F 36.1 °F 27.0 °F 55% 30.01 in 10.0 mi ESE 10.4 mph - N/A   Clear
1:52 AM 41.0 °F 35.2 °F 27.0 °F 57% 30.01 in 10.0 mi ESE 9.2 mph - N/A   Clear
2:52 AM 37.0 °F 31.6 °F 26.1 °F 65% 30.00 in 10.0 mi ESE 6.9 mph - N/A   Clear
3:52 AM 35.1 °F 30.1 °F 26.1 °F 70% 30.00 in 10.0 mi ESE 5.8 mph - N/A   Clear
4:52 AM 34.0 °F 28.8 °F 26.1 °F 73% 30.00 in 10.0 mi SE 5.8 mph - N/A   Clear
5:52 AM 33.1 °F 28.7 °F 26.1 °F 75% 30.01 in 10.0 mi SE 4.6 mph - N/A   Clear
7:36 AM 37.4 °F 31.4 °F 28.4 °F 70% 30.00 in 10.0 mi SSE 8.1 mph - N/A   Mostly Cloudy
7:50 AM 35.6 °F 32.8 °F 28.4 °F 75% 30.00 in 10.0 mi SSE 3.5 mph - N/A   Mostly Cloudy
7:52 AM 36.0 °F 33.3 °F 30.0 °F 79% 30.00 in 10.0 mi SSE 3.5 mph - N/A   Overcast
8:25 AM 41.0 °F 36.4 °F 32.0 °F 70% 29.99 in 10.0 mi SSE 6.9 mph - N/A   Overcast
8:52 AM 45.0 °F 39.3 °F 37.9 °F 76% 29.99 in 7.0 mi SSE 11.5 mph - N/A   Overcast
9:00 AM 44.6 °F 39.7 °F 39.2 °F 81% 29.99 in 2.0 mi SSE 9.2 mph - N/A   Haze
9:28 AM 44.6 °F 38.1 °F 42.8 °F 93% 29.99 in 0.2 mi South 13.8 mph 19.6 mph N/A Fog Fog
9:48 AM 44.6 °F 39.2 °F 42.8 °F 93% 29.99 in 0.5 mi South 10.4 mph - N/A Fog Fog
9:52 AM 45.0 °F 39.3 °F 43.0 °F 93% 29.98 in 0.5 mi South 11.5 mph - N/A Fog Fog
10:05 AM 44.6 °F 37.8 °F 44.6 °F 100% 29.98 in 0.2 mi South 15.0 mph - N/A Fog Fog
10:12 AM 46.4 °F 40.4 °F 42.8 °F 87% 29.98 in 1.0 mi SSE 13.8 mph - N/A   Mist
10:24 AM 46.4 °F 40.1 °F 42.8 °F 87% 29.98 in 2.0 mi South 15.0 mph - N/A   Overcast
10:35 AM 46.4 °F 40.4 °F 44.6 °F 93% 29.97 in 4.0 mi South 13.8 mph - N/A   Overcast
10:52 AM 48.9 °F - 44.1 °F 83% 29.96 in 5.0 mi South 13.8 mph - N/A   Haze
11:52 AM 55.0 °F - 46.0 °F 72% 29.92 in 7.0 mi South 21.9 mph 29.9 mph N/A   Overcast
12:12 PM 55.4 °F - 46.4 °F 72% 29.92 in 8.0 mi South 21.9 mph 27.6 mph N/A   Mostly Cloudy
12:38 PM 57.2 °F - 46.4 °F 67% 29.91 in 8.0 mi South 20.7 mph - N/A   Mostly Cloudy
12:52 PM 57.0 °F - 46.9 °F 69% 29.88 in 8.0 mi South 18.4 mph 26.5 mph N/A   Overcast
1:37 PM 55.4 °F - 48.2 °F 77% 29.87 in 7.0 mi South 17.3 mph - N/A   Overcast
1:52 PM 55.9 °F - 48.0 °F 75% 29.86 in 6.0 mi South 15.0 mph - N/A   Haze
2:52 PM 55.9 °F - 48.9 °F 77% 29.84 in 6.0 mi South 13.8 mph - N/A   Haze
3:52 PM 55.9 °F - 48.9 °F 77% 29.83 in 6.0 mi South 19.6 mph - N/A   Haze
4:37 PM 55.4 °F - 48.2 °F 77% 29.83 in 7.0 mi South 15.0 mph - N/A   Overcast
4:52 PM 55.9 °F - 48.9 °F 77% 29.82 in 7.0 mi South 13.8 mph - N/A   Overcast
5:52 PM 55.0 °F - 50.0 °F 83% 29.82 in 6.0 mi SSE 11.5 mph - N/A   Haze
6:48 PM 55.4 °F - 51.8 °F 88% 29.83 in 7.0 mi South 12.7 mph - N/A   Overcast
6:52 PM 55.0 °F - 51.1 °F 86% 29.82 in 7.0 mi SSE 13.8 mph - N/A   Overcast
7:14 PM 53.6 °F - 51.8 °F 94% 29.83 in 7.0 mi SSE 11.5 mph - N/A   Overcast
7:52 PM 55.0 °F - 51.1 °F 86% 29.82 in 6.0 mi South 12.7 mph - N/A   Overcast
8:52 PM 55.0 °F - 51.1 °F 86% 29.82 in 6.0 mi South 11.5 mph - N/A   Overcast
9:50 PM 55.4 °F - 51.8 °F 88% 29.84 in 5.0 mi South 11.5 mph - N/A   Overcast
9:52 PM 55.9 °F - 52.0 °F 87% 29.83 in 5.0 mi South 11.5 mph - N/A   Overcast
10:01 PM 55.4 °F - 51.8 °F 88% 29.85 in 5.0 mi South 9.2 mph - N/A   Overcast
10:52 PM 55.0 °F - 53.1 °F 93% 29.84 in 3.0 mi SE 5.8 mph - N/A   Overcast
11:00 PM 55.4 °F - 53.6 °F 94% 29.86 in 2.5 mi SSE 6.9 mph - N/A   Overcast
11:07 PM 55.4 °F - 53.6 °F 94% 29.86 in 3.0 mi South 8.1 mph - N/A   Overcast
11:30 PM 55.4 °F - 53.6 °F 94% 29.87 in 2.0 mi South 11.5 mph - N/A   Overcast
11:37 PM 55.4 °F - 53.6 °F 94% 29.87 in 1.5 mi SSE 11.5 mph - 0.00 in Rain Light Rain
11:52 PM 54.0 °F - 53.1 °F 97% 29.84 in 1.2 mi SE 9.2 mph - 0.00 in Rain Light Rain